[[{"header":{"parameterUnit":"m.s-1","parameterCategory":1,"la1":30.2991,"la2":30.254,"lo1":-89.0895,"lo2":-89.0444,"dy":0.0017,"dx":0.0017,"nx":28,"ny":28,"refTime":"2024-08-19T03:00:00:Z","depth":0,"parameterNumber":2,"parameterNumberName":"U-component_of_WINDS"},"data":[0,0,0,0,0,0,0,0,0,0,0,0,0,0,0,0,0,0,0,0,0,0,0,0,0,0,0,0,0,0,0,0,0,0,0,0,0,0,0,0,0,0,0,0,0,0,0,0,0,0,0,0,0,0,0,0,0,0,0.1343,0.1344,0,0.1484,0.1485,0.1487,0.1549,0.1548,0.1548,0.1548,0.1695,0.1699,0.1703,0,0,0,0,0,0,0,0,0,0,0,0,0,0.113,0.1133,0.1343,0.1344,0.1346,0.1484,0.1486,0.1487,0.1549,0.1548,0.1548,0.1548,0.1693,0.1698,0.1703,0,0,0,0,0,0,0,0,0,0,0,0,0,0.1242,0.1134,0.1342,0.1393,0.1399,0.1483,0.1486,0.1488,0.1549,0.1548,0.1548,0.1548,0.1692,0.1698,0.1704,0.1749,0,0,0.1723,0.1725,0,0,0,0,0,0,0,0,0.1235,0.1249,0.1384,0.139,0.1397,0.1498,0.1464,0.1575,0.1549,0.1492,0.1548,0.1548,0.163,0.1641,0.1668,0.1755,0.1762,0.1723,0.1727,0.173,0.1731,0,0,0,0,0,0,0,0.1227,0.1244,0.1399,0.1386,0.1394,0.141,0.1426,0.1486,0.1561,0.1497,0.1502,0.1517,0.1633,0.1662,0.1672,0.1764,0.1723,0.1729,0.1732,0.1735,0.1897,0.1897,0,0,0,0,0,0,0.1211,0.1237,0.1394,0.1403,0.1313,0.1414,0.1432,0.1466,0.1561,0.1575,0.1518,0.152,0.1652,0.1665,0.1678,0.1737,0.173,0.1735,0.1739,0.1896,0.1897,0.1898,0,0,0,0,0,0,0.1206,0.1224,0.1388,0.1321,0.1343,0.1418,0.1456,0.1469,0.1498,0.1576,0.159,0.1533,0.1652,0.1669,0.1731,0.1743,0.1738,0.1744,0.1895,0.1896,0.1897,0.1855,0,0,0,0,0,0,0.12,0.1222,0.1239,0.1321,0.1347,0.1438,0.1457,0.1472,0.1508,0.1512,0.1594,0.1608,0.1653,0.1721,0.1737,0.1751,0.1749,0.1895,0.1896,0.1897,0.1856,0.1855,0.1854,0,0,0,0,0,0.1192,0.1222,0.1239,0.1258,0.1369,0.1438,0.1453,0.1504,0.1509,0.1527,0.1578,0.1605,0.1739,0.1727,0.1745,0.1762,0.1894,0.1896,0.1897,0.1857,0.1855,0.1854,0,0,0,0,0,0,0.114,0.1233,0.1254,0.1311,0.1366,0.1449,0.1473,0.1501,0.1556,0.1558,0.162,0.1638,0.1694,0.1735,0.1719,0.1811,0.1819,0.1824,0.1782,0.1782,0.178,0.177,0.1754,0,0,0,0,0,0.1134,0.1182,0.1262,0.1305,0.1331,0.1397,0.1429,0.1464,0.1524,0.1548,0.1603,0.1661,0.1716,0.1751,0.1806,0.1862,0.1882,0.1883,0.1882,0.1881,0.1884,0.1918,0.192,0.1902,0.1902,0.1902,0,0,0.1125,0.1182,0.1208,0.1296,0.1343,0.1392,0.1416,0.1467,0.1504,0.1556,0.1617,0.166,0.1729,0.1788,0.1817,0.1823,0.1894,0.1882,0.1881,0.1885,0.192,0.1921,0.1923,0.1903,0.1903,0.1903,0,0,0.1132,0.118,0.1221,0.1268,0.1338,0.1382,0.1392,0.1471,0.1501,0.1564,0.1603,0.165,0.1743,0.1791,0.1827,0.1855,0.1883,0.1871,0.1865,0.1897,0.1899,0.19,0.1911,0.1914,0.1874,0.1874,0.1874,0,0.1112,0.1186,0.1239,0.1288,0.1326,0.1374,0.1418,0.146,0.1545,0.1571,0.1577,0.1696,0.1746,0.1818,0.1824,0.1852,0.1866,0.1862,0.1894,0.1896,0.1898,0.1909,0.1913,0.1872,0.1873,0.1873,0.1873,0,0.1158,0.1209,0.1234,0.1314,0.1355,0.1401,0.1462,0.1498,0.1529,0.1573,0.1637,0.1698,0.1767,0.1787,0.1818,0.1864,0.1866,0.1882,0.1891,0.1897,0.1908,0.1913,0.187,0.1871,0.1871,0.1872,0,0,0.1135,0.1245,0.1254,0.1291,0.1373,0.1414,0.1463,0.153,0.1559,0.1617,0.166,0.1739,0.1755,0.1796,0.1834,0.1862,0.1881,0.1875,0.1878,0.1874,0.1936,0.1923,0.1927,0.19,0.1901,0.1902,0.193,0,0.1154,0.1242,0.1292,0.136,0.1409,0.1456,0.1499,0.1554,0.1597,0.1646,0.1693,0.1748,0.1765,0.179,0.182,0.1872,0.1894,0.1871,0.1942,0.1943,0.1922,0.1933,0.1919,0.1943,0.1935,0.1936,0.1936,0,0.1188,0.1244,0.1316,0.1394,0.1416,0.1453,0.1519,0.1565,0.163,0.1659,0.1705,0.1743,0.1797,0.1803,0.188,0.1863,0.1895,0.1925,0.1927,0.1936,0.194,0.1942,0.1952,0.1955,0.1944,0.1943,0.1943,0,0.1164,0.1258,0.1314,0.1345,0.1437,0.1462,0.1502,0.1566,0.1603,0.1662,0.1687,0.1751,0.1786,0.1835,0.189,0.1889,0.1962,0.1971,0.1988,0.1987,0.2001,0.1999,0.2017,0.2021,0.2021,0.2021,0.2021,0,0.118,0.1223,0.1305,0.1339,0.1389,0.1447,0.1495,0.1539,0.1596,0.1641,0.1686,0.1727,0.1796,0.1846,0.1889,0.1947,0.1963,0.1988,0.1999,0.1984,0.1981,0.2006,0.2006,0.2022,0.2022,0.2022,0.2022,0,0.1163,0.1219,0.1283,0.1365,0.1387,0.142,0.1491,0.1527,0.1572,0.1628,0.1644,0.1716,0.1777,0.1836,0.1919,0.1948,0.2006,0.202,0.1983,0.1989,0.2003,0.2001,0.2037,0.2045,0.2044,0.2044,0.2044,0,0.1169,0.1203,0.1288,0.1321,0.136,0.1412,0.1451,0.151,0.1548,0.1625,0.1652,0.1717,0.1772,0.1868,0.1928,0.1992,0.2008,0.2016,0.2018,0.2002,0.2009,0.2006,0.201,0.2015,0.2014,0.2014,0.2014,0,0.1174,0.1201,0.1254,0.1318,0.1363,0.1416,0.147,0.1495,0.1565,0.1606,0.1669,0.1712,0.1796,0.186,0.1931,0.1974,0.2006,0.2013,0.2021,0.2006,0.1983,0.1996,0.198,0.2012,0.2012,0.2012,0.2012,0.2013,0.117,0.1202,0.1268,0.1326,0.1374,0.1424,0.1462,0.1512,0.1565,0.1638,0.167,0.1734,0.18,0.1898,0.194,0.1992,0.2,0.201,0.2013,0.2015,0.2012,0.1975,0.2005,0.2005,0.2005,0.2006,0.2006,0,0.1178,0.1222,0.1275,0.1351,0.1397,0.1423,0.1485,0.1522,0.1578,0.1636,0.1689,0.1762,0.1825,0.189,0.1957,0.1986,0.2003,0.2002,0.2,0.201,0.2001,0.1988,0.1987,0.1987,0.1987,0.1987,0.1987,0.1987,0.1187,0.1244,0.1279,0.1361,0.1406,0.1468,0.1501,0.1549,0.1596,0.1675,0.1727,0.1769,0.1831,0.1902,0.1962,0.1979,0.2002,0.1997,0.2019,0.2009,0.201,0.2011,0.1999,0.2001,0.2001,0.2024,0.2024,0.2024]},{"header":{"parameterUnit":"m.s-1","parameterCategory":1,"la1":30.2991,"la2":30.254,"lo1":-89.0895,"lo2":-89.0444,"dy":0.0017,"dx":0.0017,"nx":28,"ny":28,"refTime":"2024-08-19T03:00:00:Z","depth":0,"parameterNumber":3,"parameterNumberName":"V-component_of_WINDS"},"data":[0,0,0,0,0,0,0,0,0,0,0,0,0,0,0,0,0,0,0,0,0,0,0,0,0,0,0,0,0,0,0,0,0,0,0,0,0,0,0,0,0,0,0,0,0,0,0,0,0,0,0,0,0,0,0,0,0,0,-0.8991,-0.8991,0,-0.9059,-0.906,-0.906,-0.9199,-0.9202,-0.9205,-0.9208,-0.9275,-0.9274,-0.9273,0,0,0,0,0,0,0,0,0,0,0,0,0,-0.898,-0.8979,-0.8991,-0.8991,-0.8992,-0.9059,-0.906,-0.9061,-0.9199,-0.9202,-0.9206,-0.9209,-0.9275,-0.9274,-0.9273,0,0,0,0,0,0,0,0,0,0,0,0,0,-0.9009,-0.8979,-0.899,-0.9069,-0.9077,-0.9058,-0.906,-0.9061,-0.9198,-0.9202,-0.9207,-0.921,-0.9275,-0.9274,-0.9273,-0.9182,0,0,-0.9269,-0.9269,0,0,0,0,0,0,0,0,-0.9008,-0.901,-0.9057,-0.9064,-0.9073,-0.9125,-0.9081,-0.9101,-0.9197,-0.9152,-0.9208,-0.9212,-0.9221,-0.9225,-0.9229,-0.9185,-0.9188,-0.9269,-0.9269,-0.9268,-0.9268,0,0,0,0,0,0,0,-0.9005,-0.9008,-0.9018,-0.9057,-0.9067,-0.9101,-0.911,-0.9085,-0.9162,-0.9156,-0.9167,-0.9173,-0.9227,-0.9229,-0.9231,-0.9189,-0.9269,-0.9268,-0.9268,-0.9267,-0.9077,-0.9073,0,0,0,0,0,0,-0.8992,-0.9005,-0.9015,-0.902,-0.905,-0.9098,-0.9108,-0.9104,-0.9163,-0.9176,-0.9169,-0.9179,-0.9229,-0.9232,-0.9234,-0.9133,-0.9268,-0.9267,-0.9266,-0.9082,-0.9076,-0.9072,0,0,0,0,0,0,-0.8991,-0.8992,-0.9013,-0.9015,-0.902,-0.9094,-0.9088,-0.9103,-0.9106,-0.9173,-0.9187,-0.9158,-0.9233,-0.9236,-0.9195,-0.9137,-0.9266,-0.9265,-0.9087,-0.908,-0.9074,-0.8928,0,0,0,0,0,0,-0.899,-0.899,-0.8957,-0.9013,-0.902,-0.8972,-0.9085,-0.9101,-0.9104,-0.9117,-0.9166,-0.9178,-0.9236,-0.9196,-0.9194,-0.9138,-0.9264,-0.9092,-0.9084,-0.9076,-0.8938,-0.8917,-0.8899,0,0,0,0,0,-0.8989,-0.8912,-0.8954,-0.8955,-0.8979,-0.8968,-0.8972,-0.9041,-0.9099,-0.9065,-0.9109,-0.9177,-0.9144,-0.919,-0.9189,-0.9132,-0.9096,-0.9086,-0.9077,-0.8947,-0.8921,-0.89,0,0,0,0,0,0,-0.8845,-0.8921,-0.8968,-0.8907,-0.893,-0.8992,-0.8952,-0.9011,-0.9018,-0.903,-0.9115,-0.9125,-0.9073,-0.9099,-0.9149,-0.9048,-0.9131,-0.912,-0.9033,-0.9009,-0.899,-0.8984,-0.9263,0,0,0,0,0,-0.8806,-0.8791,-0.8858,-0.8798,-0.8807,-0.8877,-0.8875,-0.8926,-0.8953,-0.8964,-0.9004,-0.9027,-0.9023,-0.9018,-0.9017,-0.8943,-0.8956,-0.8904,-0.8884,-0.8868,-0.8857,-0.8822,-0.8799,-0.904,-0.904,-0.904,0,0,-0.8725,-0.8765,-0.875,-0.877,-0.8794,-0.8777,-0.8884,-0.8861,-0.8849,-0.896,-0.8924,-0.8955,-0.8986,-0.8929,-0.8906,-0.8949,-0.8794,-0.8855,-0.8842,-0.8841,-0.8809,-0.8787,-0.8766,-0.9033,-0.9034,-0.9036,0,0,-0.8569,-0.8597,-0.8551,-0.8573,-0.8609,-0.8657,-0.8645,-0.8698,-0.8723,-0.8689,-0.8772,-0.8759,-0.8749,-0.8769,-0.8777,-0.8631,-0.8694,-0.8629,-0.8526,-0.8491,-0.8472,-0.8455,-0.8404,-0.8384,-0.8618,-0.8618,-0.8618,0,-0.8464,-0.8442,-0.8519,-0.8491,-0.8497,-0.8599,-0.8552,-0.857,-0.8603,-0.8605,-0.8654,-0.8644,-0.8673,-0.8622,-0.8587,-0.859,-0.858,-0.8623,-0.8468,-0.8453,-0.8439,-0.839,-0.837,-0.861,-0.8611,-0.8612,-0.8612,0,-0.8311,-0.8294,-0.8252,-0.8283,-0.8285,-0.8247,-0.8319,-0.8312,-0.8364,-0.8406,-0.837,-0.8409,-0.8418,-0.841,-0.846,-0.8367,-0.8393,-0.8453,-0.8538,-0.8406,-0.8362,-0.8344,-0.8598,-0.8601,-0.8603,-0.8606,0,0,-0.8063,-0.8139,-0.8122,-0.8139,-0.8187,-0.8175,-0.8143,-0.8154,-0.8146,-0.8166,-0.8141,-0.8131,-0.8189,-0.8198,-0.8251,-0.822,-0.8103,-0.8285,-0.8287,-0.825,-0.8003,-0.7957,-0.7934,-0.8145,-0.8142,-0.814,-0.8001,0,-0.7918,-0.7868,-0.7937,-0.7871,-0.7857,-0.7955,-0.7927,-0.7953,-0.7993,-0.7987,-0.803,-0.8022,-0.8098,-0.8105,-0.8078,-0.8122,-0.8054,-0.8134,-0.8123,-0.8122,-0.8111,-0.7911,-0.7861,-0.7728,-0.7984,-0.7981,-0.7979,0,-0.7741,-0.7754,-0.7686,-0.7741,-0.7738,-0.7711,-0.7727,-0.772,-0.7753,-0.7784,-0.7795,-0.786,-0.7832,-0.7915,-0.7879,-0.7932,-0.7932,-0.7953,-0.795,-0.7951,-0.8041,-0.7906,-0.7687,-0.7667,-0.7953,-0.7955,-0.7957,0,-0.7567,-0.7568,-0.7528,-0.7539,-0.7601,-0.758,-0.7605,-0.7642,-0.7644,-0.7658,-0.7661,-0.7671,-0.7676,-0.7683,-0.7748,-0.7803,-0.7704,-0.7793,-0.7729,-0.7727,-0.7703,-0.7703,-0.748,-0.7703,-0.7704,-0.7704,-0.7704,0,-0.7397,-0.7352,-0.7452,-0.7427,-0.738,-0.7461,-0.7412,-0.7447,-0.7479,-0.7463,-0.7548,-0.7531,-0.7619,-0.7612,-0.7663,-0.7626,-0.7627,-0.7652,-0.7666,-0.7644,-0.764,-0.7644,-0.7655,-0.7699,-0.77,-0.7701,-0.7702,0,-0.7194,-0.7259,-0.7223,-0.7285,-0.73,-0.7262,-0.7316,-0.7296,-0.7342,-0.7321,-0.732,-0.7392,-0.7388,-0.7455,-0.7463,-0.7498,-0.7437,-0.7468,-0.7426,-0.7436,-0.7368,-0.7374,-0.714,-0.7113,-0.7353,-0.735,-0.7348,0,-0.7081,-0.7049,-0.7109,-0.7105,-0.7126,-0.7118,-0.7121,-0.72,-0.72,-0.7236,-0.7212,-0.7215,-0.7222,-0.7212,-0.7264,-0.7272,-0.7303,-0.7221,-0.7305,-0.7284,-0.7302,-0.7303,-0.73,-0.7202,-0.7199,-0.7197,-0.7195,0,-0.6873,-0.6907,-0.6909,-0.6923,-0.6925,-0.6939,-0.6959,-0.6951,-0.7037,-0.7033,-0.7031,-0.7036,-0.7047,-0.7049,-0.7067,-0.7093,-0.7158,-0.7169,-0.7154,-0.7131,-0.7108,-0.712,-0.7378,-0.7173,-0.7175,-0.7177,-0.7178,-0.7179,-0.6712,-0.6689,-0.6727,-0.6727,-0.6751,-0.6768,-0.6753,-0.6797,-0.6797,-0.6812,-0.6859,-0.6849,-0.6884,-0.6915,-0.6936,-0.6929,-0.697,-0.6949,-0.6943,-0.6937,-0.6924,-0.711,-0.6933,-0.6933,-0.6934,-0.6935,-0.6935,0,-0.6508,-0.6539,-0.6538,-0.6564,-0.6564,-0.6627,-0.6653,-0.6648,-0.6639,-0.6666,-0.6672,-0.667,-0.6673,-0.6727,-0.6737,-0.6721,-0.6751,-0.6721,-0.6723,-0.6728,-0.6887,-0.6899,-0.6697,-0.6697,-0.6697,-0.6697,-0.6697,-0.6697,-0.6402,-0.6367,-0.6406,-0.6383,-0.6414,-0.6405,-0.6415,-0.6431,-0.6454,-0.6448,-0.6452,-0.6487,-0.6526,-0.6539,-0.6545,-0.6561,-0.6561,-0.652,-0.6546,-0.6693,-0.6716,-0.6738,-0.6749,-0.6519,-0.6519,-0.6387,-0.6386,-0.6385]}]]